STARLINK-1923 (46754 NORAD) Tracking and Keplerian Element Data

This shows tracking and keplerian element data for the satellite.

Feedback or suggestion? Click here.




ElementValue
Catalog46754
NameSTARLINK-1923
Epoch Orbit515
Epoch Day328.16667824
Epoch Year2020
RAAN15.4262
Inclination53.0554
Eccentricity0.0001356
Argument of Perigee71.0682
Mean Anonmoly178.4603
Mean Motion15.62831626
Decay Rate-0.00054963
L11 46754U 20074R 20328.16667824 -.00054963 00000-0 -59665-3 0 9997
L22 46754 53.0554 15.4262 0001356 71.0682 178.4603 15.62831626 5159

Live tracking and technical data element details for STARLINK-1923 (NORAD 46754). STARLINK-1923 can be tracked NOW for your location showing map with azimuth and elevation plus other details from your city location.

Track the satellite on the map from your city or location and see movement details for azimuth, elevation, latitude, longitude, range, height, and movement on the map or in text.







IsCatalogInMostPopularTable: catalog: 46754, numindb: 6
Update: records affected: 1



GetName: 46754 STARLINK-1923

Hit Count: updated at: Tue, 24 Nov 2020 11:42:16 GMT